YAM-3 (48915 NORAD) Tracking and Keplerian Element Data

This shows tracking and keplerian element data for the satellite.

Feedback or suggestion? Click here.




ElementValue
Catalog48915
NameYAM-3
Epoch Orbit1388
Epoch Day268.63953183
Epoch Year2021
RAAN36.1121
Inclination97.5209
Eccentricity0.0010304
Argument of Perigee288.6241
Mean Anonmoly71.3871
Mean Motion15.12796175
Decay Rate1.15E-05
L11 48915U 21059AN 21268.63953183 .00001150 00000-0 69183-4 0 9999
L22 48915 97.5209 36.1121 0010304 288.6241 71.3871 15.12796175 13885

Live tracking and technical data element details for YAM-3 (NORAD 48915). YAM-3 can be tracked NOW for your location showing map with azimuth and elevation plus other details from your city location.

Track the satellite on the map from your city or location and see movement details for azimuth, elevation, latitude, longitude, range, height, and movement on the map or in text.







IsCatalogInMostPopularTable: catalog: 48915, numindb: 36
Update: records affected: 1



GetName: 48915 YAM-3

Hit Count: updated at: Sun, 26 Sep 2021 16:54:03 GMT